Violingletscher

KL  EN  DA
ASIAQ
Weather Now GREENLAND SURVEY
Updated [WGT/WGST] Temperature [°C] Wind [m/s] Air pressure [hPa] Relative humidity [%] Precipitation [mm]
Present Wind chill Speed Max
24.09 04:00n/an/an/an/an/an/an/a
24.09 03:00-9,90,04,0 ⇓n/a96158n/a
24.09 02:00-9,80,04,0 ⇓n/a96157n/a
24.09 01:00-9,60,04,1 ⇓n/a96257n/a
24.09 00:00-10,10,03,9 ⇓n/a96262n/a
23.09 23:00-9,40,04,2 ⇓n/a96259n/a
23.09 22:00-8,80,04,1 ⇓n/a96257n/a
23.09 21:00-8,60,03,8 ⇓n/a96257n/a
23.09 20:00-8,20,03,7 ⇓n/a96257n/a
23.09 19:00-8,20,03,1 ⇓n/a96260n/a
23.09 18:00-6,30,03,0 ⇓n/a96251n/a
23.09 17:00-6,80,02,2 ⇓n/a96153n/a
23.09 16:00-5,30,02,0 ⇓n/a96148n/a
23.09 15:00-5,20,02,4 ⇓n/a96151n/a
23.09 14:00-5,30,02,7 ⇓n/a96152n/a
23.09 13:00-5,00,03,1 ⇓n/a96150n/a
23.09 12:00-5,00,04,0 ⇘n/a96149n/a
23.09 11:00-5,50,05,1 ⇓n/a96152n/a
23.09 10:00-6,10,05,7 ⇓n/a96053n/a
23.09 09:00-6,20,06,1 ⇓n/a96055n/a
23.09 08:00-5,60,05,8 ⇓n/a95951n/a
23.09 07:00-5,80,06,0 ⇓n/a95953n/a
23.09 06:00-5,70,06,0 ⇓n/a95852n/a
23.09 05:00-6,30,06,1 ⇓n/a95859n/a
23.09 04:00-6,60,05,9 ⇓n/a95762n/a
Position: (72.223,-26.8182)

[Back]